Waarnemingen

Advertentie
Mijn weer
Caceres, Spanje (8261): temperatuur & dauwpunt: 21.09.2020 16:00:00 - 27.09.2020 16:00:00 (CEST)Caceres, Spanje (8261): windsnelheid: 21.09.2020 16:00:00 - 27.09.2020 16:00:00 (CEST)Caceres, Spanje (8261): windrichting: 21.09.2020 16:00:00 - 27.09.2020 16:00:00 (CEST)Caceres, Spanje (8261): luchtdruk: 21.09.2020 16:00:00 - 27.09.2020 16:00:00 (CEST)Caceres, Spanje (8261): zicht: 21.09.2020 16:00:00 - 27.09.2020 16:00:00 (CEST)Caceres, Spanje (8261): neerslag: 21.09.2020 16:00:00 - 27.09.2020 16:00:00 (CEST)
Datum & Tijd tt [°C] td [°C] ff [km/u] ff [kn] dd ppp [hPa] vv [km] rr [mm]
27.09.2020 16:00:00 24,7 8,6 13 7 NNW 1013,3 20 0,0
27.09.2020 15:00:00 23,7 8,9 15 8 NW 1014,3 20 0,0
27.09.2020 14:00:00 23,1 10,5 11 6 N 1014,9 35 -
27.09.2020 13:00:00 21,3 10,7 16 9 NNW 1015,6 20 0,0
27.09.2020 12:00:00 19,7 10,9 18 10 N 1016,0 20 0,0
27.09.2020 11:00:00 17,8 11,4 11 6 N 1016,1 40 -
27.09.2020 10:00:00 16,5 11,2 15 8 NNW 1015,7 16 0,0
27.09.2020 09:00:00 14,9 10,9 8 4 WNW 1015,8 15 0,0
27.09.2020 08:00:00 14,6 11,2 13 7 WNW 1015,5 30 -
27.09.2020 07:00:00 15,3 11,9 16 9 WNW 1015,4 18 0,0
27.09.2020 06:00:00 15,0 11,6 11 6 W 1015,9 18 0,0
27.09.2020 05:00:00 15,5 11,3 11 6 WNW 1016,2 19 -
27.09.2020 04:00:00 15,8 11,4 16 9 WNW 1016,8 18 0,0
27.09.2020 03:00:00 15,7 11,3 18 10 NW 1017,2 19 0,0
27.09.2020 02:00:00 15,7 11,1 15 8 NW 1018,1 19 -
27.09.2020 01:00:00 15,9 10,9 18 10 WNW 1018,3 19 0,0
27.09.2020 00:00:00 16,5 10,6 15 8 WNW 1018,7 19 0,0
26.09.2020 23:00:00 17,0 10,1 13 7 NW 1018,9 18 -
26.09.2020 22:00:00 18,0 9,6 21 11 NW 1018,8 19 0,0
26.09.2020 21:00:00 19,3 9,2 16 9 NW 1018,4 20 0,0
26.09.2020 20:00:00 21,1 8,4 15 8 NW 1017,8 20 -
26.09.2020 19:00:00 22,3 7,3 18 10 NW 1017,4 20 0,0
26.09.2020 18:00:00 22,7 5,6 21 11 NNW 1017,6 20 0,0
26.09.2020 17:00:00 22,6 5,1 21 11 NW 1018,2 20 -
26.09.2020 16:00:00 22,0 5,4 21 11 NNW 1018,8 19 0,0
26.09.2020 15:00:00 20,5 6,4 18 10 WNW 1020,3 20 0,0
26.09.2020 14:00:00 19,8 6,2 18 10 NNW 1021,2 40 -
26.09.2020 13:00:00 18,9 4,6 18 10 NW 1022,0 20 0,0
26.09.2020 12:00:00 17,1 5,4 13 7 NNW 1022,9 11 0,0
26.09.2020 11:00:00 15,0 5,2 15 8 NW 1023,0 40 -
26.09.2020 10:00:00 13,6 5,2 11 6 NNW 1023,3 12 0,0
26.09.2020 09:00:00 12,3 5,5 5 3 NW 1022,9 10 0,0
26.09.2020 08:00:00 11,3 5,0 4 2 W 1023,1 30 -
26.09.2020 07:00:00 10,9 5,8 8 4 WZW 1023,3 9 0,0
26.09.2020 06:00:00 11,5 5,6 8 4 W 1023,2 9 0,0
26.09.2020 05:00:00 12,2 5,4 5 3 WNW 1023,4 9 -
26.09.2020 04:00:00 12,8 5,2 9 5 WNW 1023,8 9 0,0
26.09.2020 03:00:00 13,4 5,5 11 6 NW 1024,0 9 0,0
26.09.2020 02:00:00 13,9 5,0 9 5 NW 1024,4 11 -
26.09.2020 01:00:00 14,7 4,9 11 6 NW 1024,3 14 0,0
26.09.2020 00:00:00 15,9 4,9 16 9 NNW 1024,5 15 0,0
25.09.2020 23:00:00 16,1 4,8 15 8 NW 1024,3 0,2 -
25.09.2020 22:00:00 16,3 4,6 8 4 NW 1024,0 0,3 0,0
25.09.2020 21:00:00 18,0 4,5 11 6 NNW 1023,4 0,8 0,0
25.09.2020 20:00:00 19,3 4,2 16 9 N 1022,9 2,4 -
25.09.2020 19:00:00 20,3 3,9 18 10 N 1022,5 3,0 0,0
25.09.2020 18:00:00 20,7 3,4 22 12 NNW 1022,2 20 0,0
25.09.2020 17:00:00 21,1 4,2 16 9 NNW 1022,4 20 -
25.09.2020 16:00:00 20,4 3,6 28 15 NNW 1022,9 20 0,0
25.09.2020 15:00:00 19,6 4,5 18 10 NNW 1023,5 19 0,0
25.09.2020 14:00:00 18,6 4,7 24 13 NNW 1024,0 35 -
25.09.2020 13:00:00 17,5 4,8 28 15 NNW 1024,6 16 0,0
25.09.2020 12:00:00 16,7 5,3 26 14 NNW 1024,4 12 0,0
25.09.2020 11:00:00 15,2 6,2 21 11 NNW 1024,2 30 -
25.09.2020 10:00:00 14,3 7,3 16 9 NW 1023,5 8 0,0
25.09.2020 09:00:00 12,7 8,4 8 4 WNW 1023,1 8 0,0
25.09.2020 08:00:00 12,6 8,7 11 6 W 1022,5 20 -
25.09.2020 07:00:00 13,0 9,1 11 6 W 1021,9 8 0,0
25.09.2020 06:00:00 13,2 9,4 11 6 W 1021,7 9 0,0
25.09.2020 05:00:00 13,4 9,4 11 6 W 1021,6 10 -
25.09.2020 04:00:00 13,5 9,5 13 7 W 1021,5 10 0,0
25.09.2020 03:00:00 14,0 9,2 13 7 W 1021,2 9 0,0
25.09.2020 02:00:00 14,7 8,9 11 6 W 1021,2 10 -
25.09.2020 01:00:00 14,9 8,8 9 5 W 1021,0 10 0,0
25.09.2020 00:00:00 15,8 9,2 15 8 W 1020,7 12 0,0
24.09.2020 23:00:00 17,0 10,1 9 5 WNW 1020,4 16 -
24.09.2020 22:00:00 18,1 10,2 13 7 WNW 1019,3 20 0,0
24.09.2020 21:00:00 19,4 10,7 15 8 WNW 1018,4 20 0,0
24.09.2020 20:00:00 21,7 11,4 16 9 W 1017,2 20 -
24.09.2020 19:00:00 23,0 11,7 18 10 W 1016,4 20 0,0
24.09.2020 18:00:00 23,5 11,9 16 9 WNW 1015,9 20 0,0
24.09.2020 17:00:00 23,3 11,0 18 10 W 1016,2 16 -
24.09.2020 16:00:00 22,7 13,2 22 12 WNW 1016,4 20 0,0
24.09.2020 15:00:00 23,0 14,6 16 9 WNW 1016,0 20 0,0
24.09.2020 14:00:00 22,5 15,3 16 9 WNW 1016,2 30 -
24.09.2020 13:00:00 21,5 16,7 13 7 WZW 1016,4 20 0,0
24.09.2020 12:00:00 20,0 17,0 15 8 WZW 1016,6 20 0,0
24.09.2020 11:00:00 19,3 17,4 11 6 ZZW 1016,6 20 -
24.09.2020 10:00:00 18,6 17,1 15 8 ZW 1016,2 20 0,0
24.09.2020 09:00:00 18,2 17,2 11 6 ZW 1015,7 6 0,0
24.09.2020 08:00:00 18,2 17,2 9 5 WZW 1015,3 10 -
24.09.2020 07:00:00 18,3 17,3 13 7 ZW 1015,5 20 0,0
24.09.2020 06:00:00 18,5 17,5 11 6 ZW 1014,8 20 0,0
24.09.2020 05:00:00 18,4 17,6 9 5 ZZW 1015,2 19 -
24.09.2020 04:00:00 18,4 17,4 5 3 ZW 1015,1 20 0,0
24.09.2020 03:00:00 18,9 17,7 9 5 ZW 1015,5 19 0,0
24.09.2020 02:00:00 19,0 17,7 11 6 ZW 1015,4 20 -
24.09.2020 01:00:00 18,5 17,5 15 8 Z 1015,8 7 0,0
24.09.2020 00:00:00 18,5 17,5 16 9 ZZW 1015,8 8 0,0
23.09.2020 23:00:00 18,6 17,3 16 9 ZZW 1015,5 11 -
23.09.2020 22:00:00 18,8 17,1 15 8 ZW 1015,3 14 0,0
23.09.2020 21:00:00 19,1 16,9 15 8 ZZW 1014,8 16 0,8
23.09.2020 20:00:00 19,9 16,9 11 6 ZW 1014,4 20 -
23.09.2020 19:00:00 22,6 16,6 15 8 Z 1013,0 20 0,0
23.09.2020 18:00:00 22,1 16,4 15 8 ZZW 1013,3 20 0,0
23.09.2020 17:00:00 22,8 14,6 16 9 W 1013,3 20 -
23.09.2020 16:00:00 23,2 14,5 13 7 WZW 1013,3 20 0,0
23.09.2020 15:00:00 22,6 14,2 13 7 W 1013,9 20 0,0
23.09.2020 14:00:00 21,6 14,7 9 5 W 1014,5 10 -
23.09.2020 13:00:00 20,1 15,7 11 6 WZW 1015,0 19 0,0
23.09.2020 12:00:00 19,4 15,5 11 6 WZW 1015,0 20 0,0
23.09.2020 11:00:00 18,7 15,8 15 8 ZZW 1014,5 12 -
23.09.2020 10:00:00 18,0 16,0 15 8 ZZW 1014,5 20 0,0
23.09.2020 09:00:00 17,4 16,1 13 7 ZZW 1014,5 - 0,0
23.09.2020 08:00:00 17,3 15,8 5 3 ZZW 1014,1 10 -
23.09.2020 07:00:00 17,2 15,7 4 2 WZW 1014,3 11 0,0
23.09.2020 06:00:00 17,2 15,4 5 3 W 1014,3 13 0,0
23.09.2020 05:00:00 17,4 15,9 8 4 W 1014,3 11 -
23.09.2020 04:00:00 17,5 15,8 8 4 W 1014,3 11 0,2
23.09.2020 03:00:00 18,5 16,1 9 5 W 1014,6 9 0,0
23.09.2020 02:00:00 19,3 16,1 5 3 W 1014,5 20 -
23.09.2020 01:00:00 20,0 15,4 9 5 W 1014,6 20 0,0
23.09.2020 00:00:00 21,2 14,1 9 5 W 1014,4 20 0,0
22.09.2020 23:00:00 21,6 14,0 9 5 W 1014,4 20 -
22.09.2020 22:00:00 22,2 13,8 9 5 W 1014,1 20 0,0
22.09.2020 21:00:00 23,2 13,4 11 6 W 1013,4 20 0,0
22.09.2020 20:00:00 23,9 12,8 15 8 WZW 1012,7 20 -
22.09.2020 19:00:00 24,8 13,0 9 5 W 1012,3 20 0,0
22.09.2020 18:00:00 26,1 12,2 8 4 W 1012,5 20 0,0
22.09.2020 17:00:00 25,2 13,1 9 5 W 1013,2 20 -
22.09.2020 16:00:00 25,1 13,3 9 5 W 1013,9 20 0,0
22.09.2020 15:00:00 24,4 13,6 13 7 W 1014,7 20 0,0
22.09.2020 14:00:00 23,4 13,8 8 4 WZW 1015,5 30 -
22.09.2020 13:00:00 22,1 13,2 9 5 WNW 1016,2 20 0,0
22.09.2020 12:00:00 20,5 13,5 8 4 W 1016,8 20 0,0
22.09.2020 11:00:00 19,1 13,5 9 5 WNW 1017,0 22 -
22.09.2020 10:00:00 17,9 13,4 8 4 WNW 1016,9 16 0,0
22.09.2020 09:00:00 16,3 13,2 8 4 W 1016,8 7 0,0
22.09.2020 08:00:00 15,8 13,3 15 8 WZW 1016,5 18 -
22.09.2020 07:00:00 15,5 11,9 4 2 ZZW 1016,4 9 0,0
22.09.2020 06:00:00 16,3 12,1 4 2 W 1016,4 10 0,0
22.09.2020 05:00:00 16,3 12,5 5 3 W 1016,6 9 -
22.09.2020 04:00:00 16,8 12,5 4 2 W 1016,9 9 0,0
22.09.2020 03:00:00 17,5 12,6 8 4 WNW 1017,2 10 0,0
22.09.2020 02:00:00 17,8 12,7 11 6 W 1017,7 11 -
22.09.2020 01:00:00 18,5 12,7 11 6 W 1018,0 12 0,0
22.09.2020 00:00:00 19,0 12,5 15 8 W 1017,7 20 0,0
21.09.2020 23:00:00 19,9 12,2 11 6 W 1017,5 20 -
21.09.2020 22:00:00 20,8 11,4 13 7 WNW 1017,1 20 0,0
21.09.2020 21:00:00 20,3 11,2 5 3 ZW 1016,6 20 0,0
21.09.2020 20:00:00 23,4 9,0 9 5 WNW 1016,4 20 -
21.09.2020 19:00:00 24,8 8,7 13 7 WNW 1016,0 20 0,0
21.09.2020 18:00:00 25,0 8,9 13 7 WNW 1016,1 20 0,0
21.09.2020 17:00:00 24,7 8,2 11 6 NW 1016,4 20 -
21.09.2020 16:00:00 24,3 9,5 13 7 NW 1016,9 20 0,0

tt = temperatuur
td = dauwpunt
ff = windsnelheid
dd = windrichting
ppp = luchtdruk
vv = zicht
rr = neerslag

Weerstations in de omgeving